Location: Gleizolles
(44.4833°N, 6.7667°E)
Time: 16:08:58
(UTC+00:00)

Tiros 1 - Pass Details

Date: 02 July 2024
Orbit: 624 x 656 km, 48.4° (Epoch: 13 July)

Event Time Altitude Azimuth Distance (km) Brightness Sun altitude
Rises 23:39:51 0° 289° (WNW) 2,904 10.7 -22.6°
Reaches altitude 10° 23:42:11 10° 292° (WNW) 1,997 9.9 -22.6°
Maximum altitude 23:46:45 68° 16° (NNE) 674 7.3 -22.5°
Drops below altitude 10° 23:51:21 10° 100° (E) 2,003 9.6 -22.5°
Sets 23:53:41 0° 103° (ESE) 2,913 10.4 -22.5°
